カタログに戻る

COSMOS 970 DEB

運用中LEO
NORAD 10570·DEBRIS·🇷🇺 Russia

打ち上げ Dec 21, 1977 から Baikonur Cosmodrome

Loading…

次のパス (今後24時間)

TLE

最新Source: Space-Track

元期: Sep 13, 2026, 20:42 UTC

1 10570U 77121M   26256.86268740  .00001597  00000-0  14513-2 0  9991
2 10570  65.3582 208.0224 0013876 277.6927 112.8964 13.86370737420065

AllMySatでCOSMOS 970 DEBをリアルタイム追跡

Download on the App Store